Flag for Germany Weather past 2 weeks in Gross-Gerau, Hesse, Germany

Now
66 °F

Passing clouds.


Feels Like: 66 °F
Forecast: 46 / 67 °F
Wind: 6 mph from South

Location: Frankfurt-M-Flughafen Airport


UV Index: 3 (Moderate)

Visibility: N/A


Pressure: 29.59 "Hg

Humidity: 37%

Dew point: 39 °F

Location of Gross-GerauLocation

Historic Weather in Gross-Gerau

°F

Gross-Gerau temperature yesterday

Maximum temperature yesterday: 70 °F (at 3:50 PM)
Minimum temperature yesterday: 52 °F (at 3:50 AM)
Average temperature yesterday: 60 °F

Past Weeks' High & Low Weather Summary

 TemperatureHumidityPressure
High72 °F (Apr 7, 4:50 PM)93% (Apr 9, 4:50 AM)30.42 "Hg (Apr 9, 4:50 AM)
Low32 °F (Apr 16, 5:20 AM)25% (Apr 17, 5:50 PM)29.59 "Hg (Apr 21, 2:20 PM)
Average54 °F59%30.05 "Hg
* Reported Apr 6 4:20 PM — Apr 21 4:50 PM, Gross-Gerau, Weather by CustomWeather, © 2014

Note: Actual official high and low records may vary slightly from our data, if they occured in-between our weather recording intervals... More about our weather records

Advertising

Historic Weather Conditions — Data for Previous 24 hours

 ConditionsComfort  
Time TempWeatherWind HumidityBarometerVisibility
4:50 PM
Apr 21
66 °FPassing clouds.7 mph37%29.59 "HgN/A
4:20 PM68 °FPassing clouds.6 mph38%29.59 "HgN/A
3:50 PM68 °FPassing clouds.6 mph35%29.59 "HgN/A
3:20 PM68 °FSunny.8 mph35%29.59 "Hg10 mi
2:50 PM68 °FPassing clouds.5 mph38%29.59 "HgN/A
2:20 PM66 °FSunny.8 mph40%29.59 "Hg10 mi
1:50 PM66 °FPassing clouds.7 mph37%29.62 "HgN/A
1:20 PM66 °FSunny.7 mph40%29.62 "Hg10 mi
12:50 PM64 °FPassing clouds.7 mph43%29.62 "HgN/A
12:20 PM64 °FPassing clouds.7 mph43%29.62 "HgN/A
11:50 AM64 °FPassing clouds.1 mph43%29.62 "HgN/A
11:20 AM63 °FPassing clouds.2 mph45%29.65 "HgN/A
10:50 AM61 °FPassing clouds.5 mph48%29.65 "HgN/A
10:20 AM61 °FSunny.6 mph55%29.65 "Hg10 mi
9:50 AM57 °FSunny.7 mph59%29.65 "Hg10 mi
9:20 AM55 °FSunny.7 mph63%29.65 "Hg10 mi
8:50 AM54 °FSunny.7 mph72%29.65 "Hg10 mi
8:20 AM52 °FSunny.8 mph77%29.68 "Hg10 mi
7:50 AM48 °FSunny.8 mph82%29.68 "Hg10 mi
7:20 AM45 °FClear.2 mph87%29.68 "Hg10 mi
6:50 AM45 °FClear.5 mph87%29.65 "Hg10 mi
6:20 AM43 °FClear.6 mph93%29.65 "Hg10 mi
5:50 AM43 °FClear.5 mph87%29.65 "Hg10 mi
5:20 AM43 °FClear.5 mph87%29.68 "Hg10 mi
4:50 AM45 °FClear.6 mph81%29.68 "Hg10 mi
4:20 AM46 °FClear.6 mph82%29.68 "Hg10 mi
3:50 AM45 °FClear.7 mph81%29.68 "Hg10 mi
3:20 AM46 °FClear.8 mph82%29.68 "Hg10 mi
2:50 AM46 °FClear.8 mph82%29.68 "Hg10 mi
2:20 AM50 °FClear.9 mph71%29.71 "Hg10 mi
1:50 AM50 °FClear.9 mph71%29.71 "Hg10 mi
1:20 AM52 °FClear.10 mph67%29.71 "Hg10 mi
12:50 AM52 °FClear.10 mph72%29.71 "Hg10 mi
12:20 AM54 °FClear.8 mph63%29.71 "Hg10 mi
11:50 PM
Apr 20
54 °FClear.8 mph63%29.71 "Hg10 mi
11:20 PM55 °FClear.8 mph59%29.71 "Hg10 mi
10:50 PM57 °FClear.10 mph55%29.71 "Hg10 mi
10:20 PM59 °FClear.10 mph48%29.71 "Hg10 mi
9:50 PM61 °FClear.10 mph45%29.71 "Hg10 mi
9:20 PM61 °FSunny.9 mph45%29.71 "Hg10 mi
8:50 PM63 °FSunny.10 mph42%29.68 "Hg10 mi
8:20 PM64 °FScattered showers. Scattered clouds.10 mph37%29.68 "HgN/A
7:50 PM66 °FScattered showers. Scattered clouds.14 mph37%29.68 "HgN/A
7:20 PM66 °FSunny.14 mph37%29.68 "Hg10 mi
6:50 PM68 °FSunny.13 mph35%29.65 "Hg10 mi
6:20 PM70 °FSunny.14 mph33%29.65 "Hg10 mi
5:50 PM68 °FSunny.14 mph35%29.68 "Hg10 mi
5:20 PM70 °FSunny.12 mph31%29.68 "Hg10 mi
Weather by CustomWeather, © 2014

See weather overview